OPS 4682 DEB, 38386

Orbit data source: Space-Track

OPS 4682 DEB, 38386 is space debris in LEO originally from a launch on Sat, 03 Apr 1965 UTC launched from the Air Force Western Test Range (AFWTR). Debris objects in space refer to the collection of defunct objects orbiting the Earth. Examples of debris include non-operational satellites, rocket bodies, and fragments generated from explosions, collisions, or faulty payload assembly.

Loading next visibility...
Identifier
38386, 1965-027CP
Orbit
LEO
Country
Flag of USUS
Related business
Manufacturer
Unknown
Mission
Spacecraft
Bus & Motor
Unknown
Mass
Unknown
Launch date (UTC)
1965-04-03 (61 years ago)
Launch vehicle
Unknown
Launch site
Air Force Western Test Range (AFWTR)
Object type
Payload
Rocket body
Debris
Shape & HBR
Unknown shape, 0.1 m
Radar Cross Section
Small (<0.1 m²)

Expand to show TLE details & history
Last TLE update: 1 day ago

TLE from 1 day ago
0 OPS 4682 DEB
1 38386U 65027CP  26118.70058618 -.00000336  00000-0 -11182-2 0  9990
2 38386  90.2895  32.6606 0033632 349.5141  10.5276 13.01287735651235
Epoch: 2026-04-28T16:48Z
TLE epoch observation values (Epoch: 2026-04-28T16:48:50.645Z)
Latitude
-0.00012°
Longitude
-76.22255°
Altitude
1,234.683 km
Speed
7.249 km/s
True Right ascension
02h 10m 38s
True Declination
0° 00' 00"
Sunlit
Object was in daylight at epoch
Visualization orbit readout
Latitude
Unknown
Longitude
Unknown
Altitude
Unknown
Speed
Unknown
Apparent Right ascension
Unknown
Apparent Declination
Unknown
Sunlit
N/A
Visualization observer readout
Local Sidereal Time
05:44:35
Azimuth
Unknown
Elevation
Unknown
Doppler factor
Unknown
Orbital elements
Apogee altitude
1,279.839 km
Perigee altitude
1,228.502 km
Semi-major axis
7,632.307 km
Eccentricity
0.00336
Inclination
90.2895°
RAAN
32.6606°
Arg. of periapsis
349.5141°
True anomaly
10.59831°
Mean anomaly
10.5276°
Eccentric anomaly
10.56292°
Mean motion
3.25506 °/min
Orbital period
110.6 mins
BSTAR
-0.0011182
Loading maneuver chart data...
Computing Atmospheric mass density...
Loading historical data...
Loading historical data...
Loading historical data...
Loading historical data...
Loading historical data...
Loading historical data...
Loading historical data...

Documentation

Showing up to 5 results
|